CAPE
0 0 0 0 0 0 0 0 0 0 0 0 0 0 0 0 0 0 0 0 0 0 0 0 0 0 0 0 0 0 0 0 0 4 935 1793 2091 2164 2122 2088 2036 1999 2010 2044 2000 1988 2013 1938 1894 1715 1582 1528 1522 1441 1421 1453 1482 1496 1468 1211 1269 1331 1403 1484 1476 1472 1463 1541 1356 1221 1328 1368 1355 1240 1009 880 914 878 894 980 1092 1182 1323 1464 1487 1328
0 0 0 0 0 0 0 0 0 0 0 0 0 0 0 0 0 0 0 0 0 0 0 0 0 0 0 0 0 0 0 0 0 0 482 1544 2094 2209 2155 2084 2034 2039 2085 2162 2044 2036 2129 2053 1953 1839 1668 1513 1500 1503 1490 1475 1537 1523 1454 1239 1208 1271 1394 1466 1472 1455 1423 1399 1287 1283 1335 1362 1287 1056 884 950 1021 1005 980 1067 1199 1303 1385 1480 1446 1354
0 0 0 0 0 0 0 0 0 0 0 0 0 0 0 0 0 0 0 0 0 0 0 0 0 0 0 0 0 0 0 0 0 0 19 1064 1973 2256 2200 2085 2054 2027 2078 2067 2031 2055 2224 2196 2114 1991 1793 1600 1531 1497 1440 1445 1546 1575 1501 1321 1194 1346 1429 1464 1437 1353 1277 1225 1279 1339 1335 1328 1166 954 864 963 1083 1140 1155 1254 1356 1448 1478 1427 1289 1200
0 0 0 0 0 0 0 0 0 0 0 0 0 0 0 0 0 0 0 0 0 0 0 0 0 0 0 0 0 0 0 0 0 0 0 242 1573 2196 2257 2147 2068 2005 1985 2056 2103 2170 2303 2400 2316 2130 1962 1781 1594 1531 1480 1502 1656 1625 1529 1398 1344 1270 1317 1352 1363 1275 1179 1203 1300 1326 1300 1188 1002 968 954 1078 1175 1278 1293 1348 1401 1523 1591 1406 1142 1034
0 0 0 0 0 0 0 0 0 0 0 0 0 0 0 0 0 0 0 0 0 0 0 0 0 0 0 0 0 0 0 0 0 0 0 0 513 1791 2076 2192 2094 2015 1924 1991 2159 2254 2355 2472 2439 2282 2187 1982 1771 1703 1680 1690 1718 1643 1533 1433 1408 1194 1219 1267 1296 1255 1230 1231 1249 1253 1184 1097 1025 996 927 1152 1311 1366 1322 1318 1318 1515 1556 1384 1172 1011
0 0 0 0 0 0 0 0 0 0 0 0 0 0 0 0 0 0 0 0 0 0 0 0 0 0 0 0 0 0 0 0 0 0 0 0 126 612 1558 1958 2001 1921 1854 1930 2066 2225 2355 2467 2580 2492 2382 2141 1952 1903 1883 1787 1743 1632 1541 1480 1445 1247 1160 1213 1244 1262 1237 1185 1184 1200 1182 1130 1060 996 891 1080 1228 1259 1256 1195 1277 1406 1322 1217 1125 1034
0 0 0 0 0 0 0 0 0 0 0 0 0 0 0 0 0 0 0 0 0 0 0 0 0 0 0 0 0 0 0 0 0 0 0 0 23 331 827 1811 1988 1897 1866 1910 2008 2161 2254 2407 2615 2611 2481 2276 2114 2071 1968 1847 1748 1674 1575 1506 1475 1222 1149 1147 1166 1197 1205 1192 1204 1207 1188 1103 1045 997 906 924 1067 1096 1075 1109 1184 1252 1156 1113 1050 1005
0 0 0 0 0 0 0 0 0 0 0 0 0 0 0 0 0 0 0 0 0 0 0 0 0 0 0 0 0 0 0 0 0 0 0 0 0 18 502 1503 1986 1982 1938 1996 2039 2108 2174 2341 2544 2605 2500 2387 2219 2090 1980 1899 1781 1708 1629 1581 1495 1210 1151 1202 1222 1220 1200 1192 1212 1225 1192 1140 1067 977 934 858 949 959 958 1065 1164 1156 1073 994 942 911
0 1 0 0 0 0 0 0 0 0 0 0 0 0 0 0 0 0 0 0 0 0 0 0 0 1 0 0 0 0 0 0 0 0 0 0 0 0 16 1019 1932 2120 2119 2126 2129 2128 2146 2219 2372 2480 2537 2486 2250 2084 2017 1995 1881 1713 1620 1595 1488 1262 1138 1194 1230 1227 1200 1169 1205 1226 1198 1158 1066 993 931 894 914 938 1009 1054 1091 1125 1030 924 868 808
0 0 0 1 0 0 0 0 0 0 0 0 0 0 0 0 0 0 0 0 0 0 0 0 0 4 0 0 0 0 0 0 0 0 0 0 0 0 0 272 1572 2142 2268 2291 2245 2211 2198 2154 2234 2394 2526 2477 2244 2132 2092 1990 1844 1712 1655 1654 1499 1291 1135 1143 1202 1220 1227 1204 1233 1251 1248 1184 1107 1019 977 912 876 910 1004 1072 1073 1066 1002 878 805 739
1 0 0 0 0 0 0 0 0 0 0 0 0 0 0 0 0 0 0 0 5 4 0 0 0 10 0 0 0 0 0 0 0 0 0 0 0 0 0 0 945 1894 2225 2374 2393 2327 2286 2224 2246 2387 2475 2374 2235 2141 2039 1964 1826 1760 1693 1677 1518 1361 1187 1132 1175 1184 1209 1234 1244 1231 1219 1162 1117 1066 1012 908 856 918 1015 1068 1080 1019 949 853 770 721
0 0 0 0 0 0 0 0 0 0 0 0 0 0 0 0 0 0 0 2 22 2 0 0 0 13 0 0 0 0 0 0 0 0 0 0 0 0 0 0 300 1376 2017 2337 2494 2462 2392 2364 2319 2359 2406 2303 2214 2113 2020 1976 1886 1856 1764 1673 1574 1384 1251 1151 1186 1166 1182 1194 1200 1176 1161 1143 1118 1098 1041 883 859 879 995 1071 1082 986 887 799 726 709
0 0 0 0 0 0 0 0 0 0 0 0 0 0 0 0 10 1 0 13 30 5 0 0 0 0 7 0 0 0 0 0 0 0 0 0 0 0 0 0 0 848 1627 2141 2440 2504 2461 2392 2354 2304 2320 2340 2210 2066 2063 2022 1983 1957 1786 1680 1590 1459 1290 1169 1190 1168 1182 1194 1193 1165 1139 1124 1110 1106 1070 902 855 841 947 1035 1068 966 858 770 710 680
0 0 0 0 0 0 0 0 0 0 0 0 0 0 6 6 19 6 68 96 78 23 0 0 0 0 5 0 0 0 0 0 0 0 0 0 0 0 0 0 0 273 1225 1904 2315 2449 2450 2414 2396 2314 2304 2250 2196 2144 2097 2092 2076 2046 1785 1688 1623 1530 1355 1239 1224 1214 1203 1194 1191 1174 1157 1138 1125 1124 1061 950 848 826 902 982 987 923 836 786 735 685
0 0 0 0 0 0 0 0 0 0 0 0 0 0 9 50 44 18 39 40 65 61 3 0 0 0 1 0 0 0 0 0 0 0 0 0 0 0 0 0 0 103 960 1696 2170 2326 2394 2425 2416 2375 2306 2297 2259 2203 2165 2140 2171 2097 1781 1722 1669 1553 1434 1289 1247 1250 1250 1230 1220 1218 1223 1213 1196 1160 1083 974 827 793 828 885 873 839 789 762 726 682
0 0 0 0 0 0 0 0 0 0 0 0 0 0 12 11 0 0 0 16 18 66 32 18 14 60 0 0 0 0 0 0 0 0 0 0 0 0 0 0 0 112 843 1555 2046 2294 2413 2450 2476 2416 2407 2410 2325 2292 2254 2211 2182 2046 1826 1755 1672 1560 1480 1354 1332 1340 1292 1240 1276 1256 1258 1256 1216 1181 1092 986 863 796 777 788 762 731 741 665 705 647
1 0 0 0 0 0 0 0 0 0 0 0 0 0 0 5 10 8 13 3 56 0 0 11 21 0 0 0 0 0 0 0 0 0 0 0 0 0 0 0 0 47 740 1464 1980 2248 2395 2480 2472 2444 2437 2430 2378 2305 2269 2202 2150 2000 1811 1729 1660 1586 1482 1444 1435 1408 1361 1335 1344 1370 1304 1290 1274 1235 1116 971 876 804 776 758 684 650 699 670 710 698
4 2 0 0 0 0 0 0 0 0 0 0 0 0 0 8 12 0 4 34 26 17 1 8 14 0 0 0 0 0 0 0 0 0 0 0 0 0 0 0 0 13 640 1440 1990 2290 2426 2452 2472 2469 2428 2398 2343 2306 2258 2163 2051 1920 1763 1721 1668 1584 1560 1566 1533 1483 1420 1411 1439 1438 1357 1346 1310 1260 1151 979 877 840 795 658 636 717 719 632 695 701
0 3 1 0 0 0 0 0 0 0 0 0 0 0 0 6 8 19 11 16 31 0 0 0 18 30 0 0 0 0 0 0 0 2 36 27 67 0 0 0 0 0 522 1466 1962 2243 2399 2444 2450 2441 2415 2398 2350 2336 2226 2098 1987 1863 1768 1739 1668 1638 1633 1627 1600 1532 1472 1476 1492 1483 1410 1390 1389 1306 1171 1088 1018 968 868 733 760 788 838 627 668 669
0 0 0 0 0 0 0 0 0 0 0 0 0 0 123 4 1 0 0 454 118 66 48 74 82 123 2 0 0 0 76 134 181 170 159 152 102 0 0 0 0 10 467 1324 1902 2155 2325 2434 2488 2480 2430 2359 2318 2305 2228 2097 1958 1847 1796 1749 1700 1694 1681 1672 1644 1590 1524 1525 1556 1517 1412 1430 1415 1325 1206 1147 1098 1030 925 840 871 917 856 701 537 582
1 0 2 0 0 0 0 0 0 0 2 0 0 0 138 0 78 3 8 6 97 97 40 85 114 88 62 94 88 146 141 84 109 154 160 191 138 37 0 0 0 5 530 1268 1814 2098 2261 2395 2440 2409 2369 2340 2371 2309 2170 2022 1948 1868 1804 1769 1774 1776 1761 1695 1654 1594 1590 1618 1627 1502 1392 1389 1359 1313 1241 1198 1147 1095 1028 954 979 970 853 624 586 581
0 0 0 0 0 0 0 0 0 0 1 17 0 0 0 0 0 0 10 13 18 12 12 2 53 39 46 44 221 109 78 24 33 106 115 103 153 79 0 0 0 33 672 1237 1731 1996 2145 2277 2328 2370 2396 2388 2301 2182 2049 2012 1936 1822 1822 1854 1858 1830 1797 1714 1666 1612 1592 1657 1663 1490 1335 1336 1302 1274 1244 1213 1209 1188 1112 1087 1086 1135 964 775 586 570
1 1 0 2 2 1 0 0 0 0 0 8 19 0 0 0 0 6 3 25 72 44 22 0 6 0 73 59 43 73 53 10 13 16 10 8 101 74 0 0 0 9 711 1209 1628 1902 2059 2149 2208 2272 2316 2270 2145 2051 2037 1985 1883 1833 1862 1885 1883 1821 1774 1732 1654 1590 1608 1680 1696 1505 1268 1240 1228 1242 1253 1272 1271 1250 1218 1177 1147 1087 913 772 591 380
1 0 1 2 1 0 1 0 0 0 0 0 0 21 0 2 0 0 0 49 17 8 0 4 0 0 0 0 6 27 43 14 18 16 11 8 0 96 0 0 0 1 514 1091 1482 1779 1991 2061 2165 2214 2199 2132 2035 1973 1916 1865 1852 1849 1842 1875 1880 1824 1755 1654 1626 1604 1641 1731 1718 1608 1346 1248 1258 1208 1243 1282 1275 1265 1263 1221 1205 1056 887 752 558 183
2 0 0 5 11 0 19 18 0 0 0 12 0 0 0 0 0 12 17 59 0 2 2 0 0 0 0 0 0 0 6 9 13 21 23 3 0 0 0 0 0 0 475 1036 1337 1629 1866 1973 2008 1995 2008 2018 1997 1962 1915 1900 1880 1862 1840 1823 1825 1771 1676 1588 1542 1527 1649 1741 1747 1699 1570 1323 1262 1267 1293 1271 1250 1268 1288 1297 1243 970 840 715 438 0
0 0 3 13 28 5 0 0 18 72 82 44 0 0 0 0 0 19 0 0 1 1 1 0 0 0 0 0 0 0 8 6 13 42 28 2 0 0 0 0 95 6 508 1030 1293 1526 1649 1754 1861 1955 1982 1988 1987 1944 1912 1890 1885 1891 1868 1856 1829 1781 1715 1668 1594 1559 1618 1732 1753 1719 1617 1389 1312 1356 1350 1324 1338 1347 1301 1247 1139 929 782 643 423 351
1 0 2 9 8 18 18 72 82 104 168 19 2 0 0 0 0 0 0 0 0 0 0 0 0 0 5 0 0 2 6 3 22 29 8 0 0 0 0 0 82 117 316 996 1270 1451 1592 1720 1826 1903 1961 1979 1966 1926 1882 1858 1860 1900 1912 1894 1832 1813 1764 1712 1654 1594 1592 1691 1753 1665 1417 1318 1284 1289 1348 1397 1448 1369 1176 1005 909 827 775 595 465 393
3 11 4 10 19 34 6 72 83 178 170 207 150 0 0 0 0 0 0 0 0 3 0 0 0 3 7 13 7 1 6 6 12 16 6 0 0 0 42 79 385 395 182 930 1268 1484 1563 1656 1776 1863 1911 1953 1931 1878 1841 1806 1828 1870 1906 1904 1866 1835 1795 1732 1690 1637 1648 1711 1764 1579 1313 1225 1308 1458 1479 1424 1348 1230 1048 890 770 725 654 623 515 346
2 5 2 3 7 11 32 5 184 224 182 228 208 148 0 0 0 0 0 0 0 0 0 5 0 0 16 21 18 0 1 14 17 8 0 0 1 0 247 444 706 759 318 939 1264 1459 1575 1677 1753 1817 1878 1891 1874 1805 1756 1756 1775 1802 1851 1872 1863 1829 1807 1761 1691 1676 1691 1718 1759 1586 1312 1237 1222 1249 1240 1208 1186 1114 996 826 701 580 677 717 533 369
0 0 0 0 0 0 7 31 26 122 194 209 281 236 5 0 0 0 0 0 0 0 0 4 2 1 13 18 10 1 0 0 0 0 0 2 0 27 549 574 951 1117 783 1090 1342 1497 1631 1722 1770 1812 1839 1845 1754 1737 1730 1702 1736 1796 1877 1907 1855 1819 1812 1758 1711 1689 1695 1716 1704 1572 1352 1189 1128 1195 1232 1061 972 901 801 716 634 671 685 582 533 418
0 0 0 0 0 0 22 31 6 32 68 132 51 252 226 0 0 0 0 0 0 0 0 1 0 0 6 4 4 1 0 0 0 0 0 7 0 367 744 789 1138 1424 1237 1376 1511 1590 1654 1730 1799 1822 1789 1756 1688 1691 1670 1674 1708 1782 1831 1808 1797 1811 1787 1755 1730 1677 1664 1710 1678 1538 1418 1376 1219 1262 1361 1217 920 806 758 692 675 646 568 503 329 362
2 1 0 0 4 1 6 8 1 9 11 31 36 149 197 0 0 0 0 0 0 0 13 14 0 2 1 2 1 4 0 0 0 0 0 5 339 639 892 962 1209 1628 1584 1617 1668 1680 1708 1724 1770 1804 1803 1740 1693 1648 1631 1650 1732 1797 1807 1780 1719 1737 1718 1718 1703 1654 1662 1670 1622 1561 1556 1503 1234 1194 1341 1242 955 823 790 726 712 684 679 591 401 265
0 3 2 0 2 8 0 12 0 7 0 3 23 18 45 1 0 0 0 0 0 2 8 6 3 0 11 4 0 0 0 0 0 0 0 154 480 675 800 925 1159 1594 1749 1782 1756 1760 1737 1723 1752 1795 1797 1733 1653 1611 1641 1694 1757 1810 1811 1725 1657 1621 1610 1646 1633 1631 1632 1640 1626 1586 1598 1419 1137 1071 1186 1104 900 891 845 757 675 718 781 557 440 322
0 1 0 0 1 1 0 4 1 2 8 4 21 14 198 224 4 0 0 0 0 5 3 2 0 0 1 3 1 0 0 0 0 0 0 240 409 550 589 648 1038 1412 1769 1768 1786 1808 1791 1777 1786 1786 1727 1688 1650 1642 1705 1747 1804 1820 1762 1627 1537 1514 1555 1577 1566 1561 1590 1599 1604 1606 1517 1232 1143 1038 1035 952 937 925 896 820 778 837 664 468 418 325
0 0 0 0 0 0 0 0 0 1 0 0 0 5 53 314 387 369 435 102 0 63 100 94 2 14 12 9 2 0 0 3 32 2 170 304 344 412 444 398 673 1078 1634 1847 1789 1829 1820 1800 1788 1721 1750 1709 1661 1663 1702 1756 1774 1690 1568 1504 1502 1519 1541 1541 1518 1518 1551 1558 1567 1512 1325 1208 1176 1042 959 994 1006 913 785 788 874 868 588 485 443 306
0 0 0 0 0 5 0 3 30 4 6 40 3 19 50 90 140 178 212 351 266 169 354 467 832 742 92 1 0 0 0 0 23 2 124 229 322 362 359 262 214 673 1202 1648 1644 1822 1828 1858 1819 1807 1779 1782 1745 1734 1760 1768 1650 1491 1442 1460 1512 1498 1506 1501 1494 1492 1501 1515 1464 1383 1300 1287 1216 1096 1066 1089 1095 1112 1091 1008 986 723 582 504 450 296
2 0 2 1 1 25 0 0 25 10 5 6 25 86 34 48 15 141 81 364 400 451 524 724 738 515 634 623 260 204 0 4 16 47 133 100 187 225 125 155 126 262 544 1353 1696 1721 1676 1847 1820 1791 1743 1742 1723 1727 1741 1678 1508 1365 1363 1397 1458 1510 1506 1471 1453 1464 1472 1454 1429 1402 1400 1345 1212 1161 1182 1207 1187 1195 1205 1146 862 644 549 555 474 303
2 0 0 3 13 0 0 19 0 0 16 20 1 14 47 46 50 22 42 69 234 256 521 619 716 492 531 375 475 640 555 18 64 159 140 122 71 67 134 49 20 108 341 813 1750 1785 1810 1718 1671 1692 1666 1687 1688 1725 1673 1555 1433 1369 1372 1388 1434 1498 1502 1467 1445 1453 1478 1487 1485 1471 1439 1348 1218 1200 1227 1239 1234 1216 1205 1109 872 742 611 532 390 293
1 0 0 1 3 8 8 1 1 0 3 2 1 7 25 35 36 43 22 60 113 342 355 321 424 486 547 593 494 501 402 0 37 73 89 92 50 0 0 52 133 149 310 560 1602 1856 1838 1751 1728 1730 1710 1712 1691 1678 1572 1426 1400 1396 1417 1393 1415 1454 1496 1476 1451 1449 1475 1485 1478 1461 1466 1458 1373 1282 1262 1305 1355 1358 1244 1036 874 791 589 465 406 378
0 0 4 1 0 0 5 4 1 0 0 0 1 7 14 16 52 25 22 0 67 129 255 230 354 410 77 288 341 355 323 0 9 30 37 56 46 42 4 0 35 45 68 455 721 1583 1734 1759 1754 1650 1596 1688 1722 1699 1592 1455 1396 1406 1410 1422 1391 1379 1399 1386 1383 1393 1423 1424 1450 1469 1503 1521 1539 1394 1310 1372 1454 1426 1166 885 822 819 618 472 475 486
0 0 1 8 10 13 4 0 0 0 0 0 0 1 1 8 78 12 8 13 28 85 112 38 151 411 414 255 217 334 331 411 260 303 586 533 150 47 23 0 0 0 8 98 530 1272 1642 1632 1530 1516 1670 1798 1705 1673 1558 1417 1427 1432 1429 1421 1384 1309 1334 1312 1248 1238 1326 1388 1444 1495 1558 1626 1567 1401 1268 1365 1486 1388 1025 797 760 744 616 509 509 538
3 4 0 0 2 3 9 3 2 0 9 0 0 5 6 0 3 0 11 42 37 29 75 82 110 474 716 640 397 424 558 730 856 959 830 678 658 396 268 579 452 240 0 134 581 947 1518 1646 1615 1667 1687 1689 1624 1522 1464 1425 1462 1421 1453 1418 1346 1257 1270 1232 1240 1252 1261 1322 1377 1488 1638 1665 1597 1591 1491 1379 1364 1056 938 833 707 680 625 539 317 469
27 14 4 4 7 0 3 4 3 17 4 0 5 0 1 0 0 12 31 88 95 76 185 308 357 584 677 591 606 578 517 708 1090 1160 974 820 680 556 702 962 798 448 123 16 584 1014 1372 1624 1724 1750 1715 1672 1646 1598 1483 1392 1348 1371 1410 1403 1297 1178 1165 1195 1218 1230 1247 1293 1366 1423 1522 1551 1505 1451 1367 1338 1254 1104 981 784 770 727 612 592 493 351
21 2 2 0 7 11 3 3 9 0 0 0 6 7 7 1 1 18 42 16 33 64 178 184 360 561 628 668 708 697 760 909 1279 1121 1051 1124 1018 895 886 1111 1059 619 156 62 412 790 1200 1516 1678 1801 1676 1577 1544 1496 1455 1420 1326 1430 1519 1398 1246 1177 1150 1168 1217 1245 1290 1344 1392 1395 1364 1396 1370 1336 1281 1277 1248 1110 988 823 700 659 579 472 561 496
4 0 1 15 1 14 8 2 1 0 1 2 7 6 25 8 18 23 15 6 18 27 139 158 228 438 602 590 587 580 591 905 1184 1197 1130 1206 1268 1281 1186 1083 1184 1084 751 435 196 583 847 1232 1490 1593 1578 1416 1295 1464 1522 1470 1452 1352 1400 1360 1309 1198 1170 1194 1241 1284 1352 1370 1319 1247 1244 1305 1448 1427 1277 1175 1208 923 915 776 639 618 550 400 288 165
0 0 8 45 2 4 0 1 0 0 0 0 24 30 25 17 17 14 31 4 24 48 57 116 86 168 345 481 483 546 581 645 957 1276 1389 1225 1322 1436 1450 1364 1202 1144 1144 914 706 627 670 912 1290 1433 1463 1296 1104 1246 1421 1515 1488 1440 1466 1404 1328 1213 1184 1225 1297 1366 1385 1314 1265 1277 1240 1275 1303 1429 1416 961 994 794 670 598 612 570 513 358 190 136
0 0 0 0 0 2 2 0 4 0 0 0 0 13 17 18 24 16 4 32 5 32 2 16 31 49 41 200 377 492 573 589 706 1004 1216 1298 1243 1190 1201 1254 1153 1037 1052 1146 1027 835 664 773 1033 1279 1444 1483 1333 1365 1510 1647 1559 1433 1332 1266 1321 1231 1209 1272 1330 1376 1414 1329 1307 1288 1212 1214 1247 1322 1335 998 637 653 694 541 534 487 494 385 154 147
0 0 0 0 0 0 0 0 0 0 0 0 1 11 11 16 8 27 21 8 2 16 0 21 24 95 80 63 324 503 545 561 538 660 881 968 1041 1136 1054 1010 1015 998 937 1012 1051 998 928 758 845 1075 1249 1342 1310 1218 1312 1327 1216 1229 1172 1217 963 1065 1167 1190 1341 1420 1476 1418 1355 1346 1317 1294 1261 1222 1040 820 780 748 698 604 481 540 568 543 282 435
0 0 0 0 0 0 0 0 0 0 0 0 1 1 2 2 3 20 15 7 25 18 2 16 37 52 111 84 72 461 509 646 636 701 833 867 886 860 810 792 772 709 751 819 899 936 979 803 730 861 1033 1211 1251 1039 919 959 1051 1134 1118 1140 1030 911 994 972 1021 1289 1374 1479 1437 1400 1326 1272 1370 1174 814 750 828 832 765 596 586 599 628 529 425 456
0 0 0 0 0 0 0 0 0 0 1 0 0 0 0 0 0 13 38 5 2 0 0 9 6 67 57 38 33 316 354 483 662 736 723 705 715 745 787 762 722 678 706 682 729 835 865 851 817 780 831 865 818 753 754 709 899 986 971 1061 1020 975 951 910 1078 1357 1441 1437 1357 1276 1316 1188 1067 943 885 883 883 834 794 780 752 602 596 520 410 492
0 0 0 0 0 0 0 0 0 0 0 0 0 0 0 0 0 4 54 0 0 0 0 0 1 20 22 22 5 32 398 519 603 587 598 579 604 656 642 624 617 635 663 630 638 742 720 747 775 783 742 681 595 597 633 676 622 710 744 1084 1129 1086 982 930 1186 1318 1349 1415 1408 1360 994 982 861 899 904 863 798 762 810 808 746 705 476 412 497 532
Wind_Speed
nan nan nan nan nan nan nan nan nan nan nan nan nan nan nan nan nan nan nan nan nan nan nan nan nan nan nan nan nan nan nan nan nan nan 49 50 50 47 45 43 40 38 33 31 29 27 27 28 29 28 26 25 23 24 27 25 21 19 18 19 20 23 27 30 32 32 32 32 32 32 31 27 27 26 26 26 24 25 24 21 18 17 17 16 17 17
nan nan nan nan nan nan nan nan nan nan nan nan nan nan nan nan nan nan nan nan nan nan nan nan nan nan nan nan nan nan nan nan nan nan 48 48 50 49 44 43 41 38 38 39 40 39 39 38 37 34 30 26 22 19 21 22 21 21 23 22 22 25 29 31 33 35 34 33 33 34 31 28 28 27 27 26 25 25 24 21 18 16 15 16 17 18
nan nan nan nan nan nan nan nan nan nan nan nan nan nan nan nan nan nan nan nan nan nan nan nan nan nan nan nan nan nan nan nan nan nan nan 47 49 50 47 45 45 45 43 43 41 39 36 36 35 34 32 26 19 19 19 21 24 25 26 25 28 31 32 32 34 36 36 36 37 36 33 31 28 26 26 26 25 25 25 22 18 16 15 16 17 17
nan nan nan nan nan nan nan nan nan nan nan nan nan nan nan nan nan nan nan nan nan nan nan nan nan nan nan nan nan nan nan nan nan nan nan 49 48 47 46 46 48 47 45 45 44 41 41 39 38 36 33 31 30 29 27 24 24 27 28 28 32 33 34 33 34 37 39 41 39 37 36 32 29 29 29 26 26 27 27 22 18 15 15 16 17 17
nan nan nan nan nan nan nan nan nan nan nan nan nan nan nan nan nan nan nan nan nan nan nan nan nan nan nan nan nan nan nan nan nan nan nan nan 47 45 47 47 47 47 47 45 44 44 43 40 37 32 31 35 34 32 28 25 26 29 30 33 35 35 35 35 35 38 41 43 42 39 36 33 32 31 31 29 26 26 25 22 18 15 15 16 17 18
nan nan nan nan nan nan nan nan nan nan nan nan nan nan nan nan nan nan nan nan nan nan nan nan nan nan nan nan nan nan nan nan nan nan nan nan 47 45 48 49 48 47 48 45 43 44 43 38 34 32 33 37 36 32 30 29 29 33 35 36 36 36 36 35 36 38 40 42 42 40 38 33 30 31 30 30 30 27 23 20 18 17 17 17 18 18
nan nan nan nan nan nan nan nan nan nan nan nan nan nan nan nan nan nan nan nan nan nan nan nan nan nan nan nan nan nan nan nan nan nan nan nan nan 49 51 52 50 49 49 47 44 45 45 38 34 34 37 38 35 32 34 36 35 36 37 36 36 37 36 35 35 37 38 40 39 38 36 32 30 31 28 29 28 25 22 21 19 19 19 18 20 19
nan nan nan nan nan nan nan nan nan nan nan nan nan nan nan nan nan nan nan nan nan nan nan nan nan nan nan nan nan nan nan nan nan nan nan nan nan nan 53 52 50 49 50 50 47 46 46 43 39 38 39 39 35 37 40 38 38 39 37 38 37 36 35 33 35 36 37 38 37 36 34 30 29 30 30 29 27 24 22 22 21 22 20 20 20 20
nan nan nan nan nan nan nan nan nan nan nan nan nan nan nan nan nan nan nan nan nan nan nan nan nan nan nan nan nan nan nan nan nan nan nan nan nan nan nan 50 48 47 49 51 51 49 50 48 44 42 40 38 40 43 41 39 39 41 40 38 36 33 32 31 34 35 33 34 34 34 32 29 28 30 31 30 27 24 23 24 24 23 21 21 20 19
nan nan nan nan nan nan nan nan nan nan nan nan nan nan nan nan nan nan nan nan nan nan nan nan nan nan nan nan nan nan nan nan nan nan nan nan nan nan nan 52 49 49 51 52 52 52 52 50 46 41 39 41 45 44 41 42 44 43 39 35 33 29 29 30 31 31 30 30 31 32 30 31 30 30 30 29 26 24 24 25 24 23 22 21 20 20
nan nan nan nan nan nan nan nan nan nan nan nan nan nan nan nan nan nan nan nan nan nan nan nan nan nan nan nan nan nan nan nan nan nan nan nan nan nan nan nan 53 51 51 53 54 53 51 49 45 41 41 45 48 47 47 46 43 39 34 31 28 26 28 29 28 28 29 28 29 31 31 31 31 31 31 28 25 25 26 25 23 21 20 20 20 19
nan nan nan nan nan nan nan nan nan nan nan nan nan nan nan nan nan nan nan nan nan nan nan nan nan nan nan nan nan nan nan nan nan nan nan nan nan nan nan nan 53 51 50 51 53 53 53 51 46 44 45 50 49 50 48 44 38 33 31 28 26 26 29 28 26 27 28 28 28 29 30 29 29 30 28 26 24 24 25 24 23 21 20 19 19 18
nan nan nan nan nan nan nan nan nan nan nan nan nan nan nan nan nan nan nan nan nan nan nan nan nan nan nan nan nan nan nan nan nan nan nan nan nan nan nan nan nan 53 51 50 51 52 53 50 47 47 49 51 50 48 44 37 32 31 30 27 25 26 29 27 26 27 28 27 27 27 27 26 26 27 25 23 24 24 24 24 23 22 20 19 19 18
nan nan nan nan nan nan nan nan nan nan nan nan nan nan nan nan nan nan nan nan nan nan nan nan nan nan nan nan nan nan nan nan nan nan nan nan nan nan nan nan nan 53 52 51 51 51 49 48 45 45 46 47 47 44 38 33 31 31 29 26 24 27 29 27 26 27 27 26 26 25 24 24 25 24 23 22 23 23 23 23 23 22 20 19 19 19
nan nan nan nan nan nan nan nan nan nan nan nan nan nan nan nan nan nan nan nan nan nan nan nan nan nan nan nan nan nan nan nan nan nan nan nan nan nan nan nan nan 52 52 52 50 48 46 44 44 44 44 45 44 40 35 31 30 30 27 24 24 27 27 26 26 27 27 26 24 22 21 22 23 23 22 22 22 23 23 22 22 21 20 19 18 19
nan nan nan nan nan nan nan nan nan nan nan nan nan nan nan nan nan nan nan nan nan nan nan nan nan nan nan nan nan nan nan nan nan nan nan nan nan nan nan nan nan 52 51 50 48 46 44 43 44 44 45 43 41 38 33 29 29 26 22 22 23 25 26 26 27 26 27 25 23 21 21 22 23 22 22 22 22 21 22 23 22 22 20 19 19 19
nan nan nan nan nan nan nan nan nan nan nan nan nan nan nan nan nan nan nan nan nan nan nan nan nan nan nan nan nan nan nan nan nan nan nan nan nan nan nan nan nan nan 49 48 47 46 44 44 44 44 44 42 39 36 31 27 24 22 22 23 23 24 26 26 25 27 28 26 23 20 21 22 22 22 22 22 22 23 22 22 22 22 21 21 20 19
nan nan nan nan nan nan nan nan nan nan nan nan nan nan nan nan nan nan nan nan nan nan nan nan nan nan nan nan nan nan nan nan nan nan nan nan nan nan nan nan nan nan 50 46 45 45 44 42 41 42 41 38 35 32 27 24 22 21 21 22 23 25 25 24 27 28 28 25 22 21 21 21 21 22 22 22 23 23 24 23 23 23 22 20 20 20
nan nan nan nan nan nan nan nan nan nan nan nan nan nan nan nan nan nan nan nan nan nan nan nan nan nan nan nan nan nan nan nan nan nan nan nan nan nan nan nan nan nan 51 48 44 44 42 40 39 38 36 34 32 29 26 24 23 22 21 22 23 23 23 26 28 29 27 25 22 20 21 22 23 22 22 22 23 24 23 23 23 22 22 22 21 21
nan nan nan nan nan nan nan nan nan nan nan nan nan nan 33 nan nan nan nan 27 31 nan nan nan nan 39 nan nan nan nan nan 54 60 60 54 52 53 nan nan nan nan nan 50 46 45 42 40 38 36 34 34 33 30 29 28 28 26 22 22 25 26 28 30 30 30 29 27 25 23 22 22 23 22 22 22 22 24 22 22 23 23 23 23 21 21 21
nan nan nan nan nan nan nan nan nan nan nan nan nan nan 31 nan nan nan nan nan nan nan nan nan 32 nan nan nan nan 45 52 nan 59 60 55 53 56 nan nan nan nan nan 51 46 43 40 38 36 35 34 32 30 29 29 31 30 24 22 26 27 27 27 27 27 28 27 26 25 23 22 22 23 23 22 23 22 22 23 23 23 23 22 22 23 21 22
nan nan nan nan nan nan nan nan nan nan nan nan nan nan nan nan nan nan nan nan nan nan nan nan nan nan nan nan 43 42 nan nan nan 58 56 55 57 nan nan nan nan nan 47 44 42 39 35 33 30 28 29 30 33 35 33 29 26 27 27 26 28 28 26 26 26 26 26 24 22 21 22 23 23 23 22 22 22 22 23 23 23 23 24 22 22 22
nan nan nan nan nan nan nan nan nan nan nan nan nan nan nan nan nan nan nan nan nan nan nan nan nan nan nan nan nan nan nan nan nan nan nan nan 56 nan nan nan nan nan 41 39 38 35 31 26 22 23 27 31 33 32 29 27 27 28 27 28 28 26 23 24 26 26 26 23 21 20 23 24 23 22 22 22 22 22 23 24 24 24 24 23 23 22
nan nan nan nan nan nan nan nan nan nan nan nan nan nan nan nan nan nan nan nan nan nan nan nan nan nan nan nan nan nan nan nan nan nan nan nan nan nan nan nan nan nan 39 35 32 30 27 24 22 27 30 31 31 30 28 29 28 29 29 28 27 23 23 25 26 26 25 22 20 21 23 23 23 22 22 21 21 23 24 25 25 24 23 23 24 23
nan nan nan nan nan nan nan nan nan nan nan nan nan nan nan nan nan nan nan nan nan nan nan nan nan nan nan nan nan nan nan nan nan nan nan nan nan nan nan nan nan nan 40 34 30 28 27 27 29 32 33 32 30 29 28 28 30 31 30 28 25 22 24 26 26 26 24 22 21 21 23 22 22 21 21 22 22 23 25 25 25 24 24 24 24 nan
nan nan nan nan nan nan nan nan nan nan nan nan nan nan nan nan nan nan nan nan nan nan nan nan nan nan nan nan nan nan nan nan nan nan nan nan nan nan nan nan nan nan 39 33 31 32 30 30 32 32 31 31 28 27 29 30 31 32 30 26 25 24 26 26 27 26 26 23 21 21 22 21 21 21 21 22 23 25 25 25 25 24 23 24 25 24
nan nan nan nan nan nan nan nan nan 15 17 nan nan nan nan nan nan nan nan nan nan nan nan nan nan nan nan nan nan nan nan nan nan nan nan nan nan nan nan nan nan 47 37 32 32 29 30 31 26 25 26 26 25 28 30 31 32 33 30 27 26 26 26 27 27 26 25 22 20 21 21 21 21 22 22 23 24 25 26 25 25 25 24 24 25 24
nan nan nan nan nan nan nan nan nan 12 12 11 14 nan nan nan nan nan nan nan nan nan nan nan nan nan nan nan nan nan nan nan nan nan nan nan nan nan nan nan 53 45 36 33 33 29 24 24 25 24 24 24 25 29 30 31 32 31 29 27 27 28 27 27 27 26 24 21 20 20 22 22 23 23 23 24 25 26 26 25 24 24 25 26 26 24
nan nan nan nan nan nan nan nan 13 11 10 10 9 10 nan nan nan nan nan nan nan nan nan nan nan nan nan nan nan nan nan nan nan nan nan nan nan nan 57 57 52 42 33 29 27 24 24 24 24 23 25 25 27 29 31 32 32 31 30 29 29 29 26 26 26 24 22 21 19 20 23 24 24 24 24 25 26 26 26 25 24 25 25 25 25 24
nan nan nan nan nan nan nan nan nan 6 10 11 9 7 nan nan nan nan nan nan nan nan nan nan nan nan nan nan nan nan nan nan nan nan nan nan nan nan 55 55 49 38 31 25 24 24 23 20 20 21 24 27 28 31 32 32 31 29 28 29 30 29 27 27 24 23 21 19 20 23 24 24 24 24 25 25 26 26 26 24 24 24 25 25 25 25
nan nan nan nan nan nan nan nan nan nan nan 10 nan 10 11 nan nan nan nan nan nan nan nan nan nan nan nan nan nan nan nan nan nan nan nan nan nan 54 53 53 48 38 31 25 23 22 23 20 17 21 24 25 27 29 31 31 29 28 27 28 28 27 26 25 23 21 19 19 22 25 25 24 24 24 24 25 26 26 25 24 23 24 24 24 25 25
nan nan nan nan nan nan nan nan nan nan nan nan nan 13 13 nan nan nan nan nan nan nan nan nan nan nan nan nan nan nan nan nan nan nan nan nan 53 52 50 48 47 40 33 26 23 23 23 20 18 19 20 21 23 25 28 30 29 29 27 27 26 25 26 25 22 20 19 21 25 26 25 24 24 24 25 26 26 26 25 24 24 24 24 24 25 25
nan nan nan nan nan nan nan nan nan nan nan nan nan nan nan nan nan nan nan nan nan nan nan nan nan nan nan nan nan nan nan nan nan nan nan 51 50 46 42 43 45 41 38 33 28 27 26 20 15 13 13 16 19 21 23 26 28 26 26 25 25 26 25 24 22 21 22 24 25 26 26 25 24 25 26 26 27 26 25 24 24 25 25 24 24 25
nan nan nan nan nan nan nan nan nan nan nan nan nan nan 12 14 nan nan nan nan nan nan nan nan nan nan nan nan nan nan nan nan nan nan nan 43 44 43 41 41 43 42 40 42 41 36 29 23 17 13 12 13 14 15 20 24 23 23 25 26 28 27 25 24 23 23 24 25 26 27 27 26 25 25 27 28 28 27 25 24 24 25 25 26 26 25
nan nan nan nan nan nan nan nan nan nan nan nan nan nan nan 19 18 20 17 14 nan nan nan nan nan nan nan nan nan nan nan nan nan nan 52 48 40 38 40 41 41 44 42 38 40 41 39 33 24 20 19 19 19 23 27 27 27 30 32 32 29 27 26 25 24 24 26 26 27 28 27 26 25 26 29 29 28 26 26 25 25 26 26 26 26 25
nan nan nan nan nan nan nan nan nan nan nan nan nan nan nan nan 16 23 25 23 22 16 13 15 16 15 nan nan nan nan nan nan nan nan 48 45 41 39 40 38 39 41 41 39 36 34 34 32 27 23 20 21 24 26 25 25 28 29 29 29 27 27 26 26 26 26 28 28 28 28 27 27 26 28 30 30 28 26 26 26 26 26 26 26 25 23
nan nan nan nan nan nan nan nan nan nan nan nan nan nan nan nan nan 21 nan 13 10 5 13 19 17 13 19 22 30 42 nan nan nan nan 49 44 41 40 39 39 39 40 41 43 37 29 31 33 29 24 26 29 27 26 26 29 30 29 30 29 28 28 28 28 27 27 28 29 29 28 28 27 28 29 30 30 28 26 26 26 26 25 26 26 24 24
nan nan nan nan nan nan nan nan nan nan nan nan nan nan nan nan nan nan nan nan 11 10 18 23 18 15 18 24 33 42 42 nan nan 45 46 48 nan nan 45 nan nan 36 38 41 42 34 30 31 32 34 33 30 28 27 30 31 31 32 30 27 28 29 29 28 26 28 30 30 29 29 28 28 29 30 30 29 27 27 26 24 25 25 24 24 23 21
nan nan nan nan nan nan nan nan nan nan nan nan nan nan nan nan nan nan nan nan 14 18 23 24 21 18 17 19 29 40 43 nan nan nan nan nan nan nan nan nan 34 28 28 29 32 31 29 29 31 31 30 31 31 32 32 31 31 31 29 28 28 29 28 26 27 29 30 31 32 31 29 29 30 31 30 27 26 26 26 23 22 23 24 24 23 23
nan nan nan nan nan nan nan nan nan nan nan nan nan nan nan nan nan nan nan nan nan 27 24 22 17 15 nan 12 15 28 34 nan nan nan nan nan nan nan nan nan nan nan nan 30 32 31 30 32 33 33 32 29 27 30 29 30 30 29 28 28 29 29 28 26 26 29 34 36 34 32 30 30 31 31 29 28 28 26 24 24 25 26 25 25 26 26
nan nan nan nan nan nan nan nan nan nan nan nan nan nan nan nan nan nan nan nan nan nan 21 nan 11 9 6 5 9 14 20 26 35 45 50 47 46 nan nan nan nan nan nan nan 34 38 36 34 31 29 26 24 26 31 32 31 31 29 29 30 31 28 26 28 33 36 37 37 34 31 29 31 32 31 28 28 27 25 25 25 25 25 25 26 27 28
nan nan nan nan nan nan nan nan nan nan nan nan nan nan nan nan nan nan nan nan nan nan nan nan 13 9 5 2 3 6 12 21 26 33 42 46 45 45 45 42 41 38 nan 39 43 42 37 34 31 27 27 30 30 30 31 30 30 31 32 33 30 28 32 36 37 37 38 36 34 31 31 33 33 29 28 29 31 30 27 26 25 24 24 27 27 26
nan nan nan nan nan nan nan nan nan nan nan nan nan nan nan nan nan nan nan nan nan nan 14 13 10 7 6 7 5 6 12 21 23 26 34 44 49 46 46 45 44 42 37 nan 38 39 38 35 31 27 26 29 30 31 33 33 33 34 35 32 31 37 38 38 38 37 37 37 35 33 33 34 31 31 31 29 30 31 29 27 25 24 24 25 27 29
nan nan nan nan nan nan nan nan nan nan nan nan nan nan nan nan nan nan nan nan nan nan 12 11 10 7 4 3 6 8 11 19 24 25 33 44 47 43 41 42 44 43 39 nan 34 35 35 32 32 32 31 31 33 34 35 34 35 34 32 30 38 41 41 41 39 39 39 37 36 36 35 34 35 32 29 31 35 36 32 25 23 25 25 28 30 30
nan nan nan nan nan nan nan nan nan nan nan nan nan nan nan nan nan nan nan nan nan nan 12 10 8 8 6 5 5 4 5 9 15 21 29 37 39 34 30 32 34 36 37 33 31 34 37 34 33 36 38 42 39 36 34 33 32 31 29 35 42 41 41 42 41 40 40 39 39 39 38 37 34 31 35 38 38 33 26 23 25 27 29 33 32 29
nan nan nan nan nan nan nan nan nan nan nan nan nan nan nan nan nan nan nan nan nan nan nan 9 nan 8 8 6 7 7 5 5 9 16 20 27 28 23 22 23 26 28 32 33 34 34 36 38 40 42 41 36 30 29 31 30 30 29 32 41 44 44 44 44 42 39 38 38 40 39 37 35 33 32 34 35 32 26 23 26 27 27 27 29 27 28
nan nan nan nan nan nan nan nan nan nan nan nan nan nan nan nan nan nan nan nan nan nan nan nan nan nan nan 8 8 10 12 11 10 10 12 17 21 20 17 18 21 24 27 31 31 34 36 37 37 39 38 31 30 32 34 34 39 42 48 48 47 47 45 43 40 39 40 42 41 37 32 31 30 31 33 34 34 31 28 27 27 27 27 26 26 28
nan nan nan nan nan nan nan nan nan nan nan nan nan nan nan nan nan nan nan nan nan nan nan nan nan nan nan nan 9 11 13 16 15 13 12 14 15 18 20 20 21 25 28 29 31 35 38 40 41 42 44 44 45 46 52 57 54 50 49 48 49 51 48 44 42 41 41 42 39 34 31 33 34 35 34 33 33 32 30 26 25 25 25 25 27 29
nan nan nan nan nan nan nan nan nan nan nan nan nan nan nan nan nan nan nan nan nan nan nan nan nan nan 12 nan nan 9 10 14 15 15 17 17 17 17 19 21 22 22 25 28 30 31 33 36 40 42 44 45 46 47 47 47 45 44 44 42 42 42 40 38 41 42 42 41 37 35 35 35 33 32 33 33 32 30 26 24 24 24 22 22 26 29
nan nan nan nan nan nan nan nan nan nan nan nan nan nan nan nan nan nan nan nan nan nan nan nan nan nan nan nan nan 11 11 11 13 17 19 19 20 22 22 22 22 23 24 26 27 29 31 33 37 39 39 38 42 47 49 48 47 45 46 45 43 42 40 37 39 41 39 37 34 31 32 33 32 31 30 30 30 30 28 27 26 22 24 26 26 29
nan nan nan nan nan nan nan nan nan nan nan nan nan nan nan nan nan nan nan nan nan nan nan nan nan nan nan nan nan nan 12 13 12 16 19 20 21 21 22 23 24 25 25 24 27 28 30 30 35 40 41 39 40 44 47 48 46 45 44 44 44 43 41 39 43 43 38 33 30 30 30 30 29 29 29 28 28 27 28 27 27 31 31 31 33 37
Wind_Direction
nan nan nan nan nan nan nan nan nan nan nan nan nan nan nan nan nan nan nan nan nan nan nan nan nan nan nan nan nan nan nan nan nan nan 224 223 223 225 228 230 233 233 221 214 218 225 231 233 229 228 234 238 241 246 248 256 263 263 271 278 290 295 302 300 299 299 300 301 297 293 300 303 305 308 303 305 308 309 305 297 293 295 299 299 293 288
nan nan nan nan nan nan nan nan nan nan nan nan nan nan nan nan nan nan nan nan nan nan nan nan nan nan nan nan nan nan nan nan nan nan 222 224 224 224 226 228 232 230 219 218 219 219 221 224 224 223 225 231 249 250 253 260 264 261 265 272 282 294 305 306 305 301 299 298 296 293 295 291 299 305 304 304 307 307 296 288 288 292 296 300 296 289
nan nan nan nan nan nan nan nan nan nan nan nan nan nan nan nan nan nan nan nan nan nan nan nan nan nan nan nan nan nan nan nan nan nan nan 222 225 224 224 226 229 226 225 229 229 227 227 230 229 229 231 231 243 250 252 250 247 252 258 266 281 291 297 302 304 301 298 292 290 291 290 292 291 291 294 301 303 299 293 285 284 289 295 299 296 289
nan nan nan nan nan nan nan nan nan nan nan nan nan nan nan nan nan nan nan nan nan nan nan nan nan nan nan nan nan nan nan nan nan nan nan 223 222 226 227 227 230 232 233 236 238 236 232 232 230 230 234 239 241 237 230 234 247 251 261 277 287 286 288 296 301 297 291 289 287 287 289 287 289 294 290 291 295 294 288 285 282 286 296 297 294 289
nan nan nan nan nan nan nan nan nan nan nan nan nan nan nan nan nan nan nan nan nan nan nan nan nan nan nan nan nan nan nan nan nan nan nan nan 220 222 228 229 232 239 239 239 240 242 240 237 235 237 242 249 252 247 242 244 252 258 279 287 287 283 288 293 295 292 287 286 285 283 281 282 279 280 288 293 294 295 290 282 282 294 293 293 289 287
nan nan nan nan nan nan nan nan nan nan nan nan nan nan nan nan nan nan nan nan nan nan nan nan nan nan nan nan nan nan nan nan nan nan nan nan 221 218 222 227 229 234 241 243 245 249 246 243 242 243 248 253 257 257 252 251 257 264 276 283 284 284 289 292 293 290 287 288 288 287 289 291 290 292 295 304 301 291 287 285 282 283 287 288 283 281
nan nan nan nan nan nan nan nan nan nan nan nan nan nan nan nan nan nan nan nan nan nan nan nan nan nan nan nan nan nan nan nan nan nan nan nan nan 218 220 223 226 230 232 236 242 246 247 246 250 255 257 259 261 263 261 258 262 270 277 282 287 291 291 291 291 290 284 285 287 291 293 294 295 294 292 292 294 293 283 279 284 284 282 283 283 278
nan nan nan nan nan nan nan nan nan nan nan nan nan nan nan nan nan nan nan nan nan nan nan nan nan nan nan nan nan nan nan nan nan nan nan nan nan nan 220 223 225 227 231 234 236 240 244 249 258 261 261 262 266 266 263 266 271 278 282 284 291 290 290 290 289 288 285 285 285 287 290 291 292 294 294 293 290 282 277 280 280 280 281 278 278 280
nan nan nan nan nan nan nan nan nan nan nan nan nan nan nan nan nan nan nan nan nan nan nan nan nan nan nan nan nan nan nan nan nan nan nan nan nan nan nan 224 226 226 229 233 234 236 240 249 256 260 261 263 264 262 267 271 275 274 276 283 286 288 289 289 290 287 285 284 285 287 287 290 287 288 290 288 286 281 276 278 276 280 279 277 277 278
nan nan nan nan nan nan nan nan nan nan nan nan nan nan nan nan nan nan nan nan nan nan nan nan nan nan nan nan nan nan nan nan nan nan nan nan nan nan nan 223 226 227 227 230 234 238 242 247 253 257 260 262 262 265 267 265 264 267 274 284 287 287 286 285 286 286 285 283 283 285 288 290 286 284 284 286 284 279 277 281 282 281 282 280 278 277
nan nan nan nan nan nan nan nan nan nan nan nan nan nan nan nan nan nan nan nan nan nan nan nan nan nan nan nan nan nan nan nan nan nan nan nan nan nan nan nan 225 226 228 229 232 235 240 245 249 250 252 254 255 254 257 261 265 271 277 283 286 284 279 281 286 288 290 284 284 285 287 291 291 289 287 284 280 275 277 282 284 286 284 281 281 277
nan nan nan nan nan nan nan nan nan nan nan nan nan nan nan nan nan nan nan nan nan nan nan nan nan nan nan nan nan nan nan nan nan nan nan nan nan nan nan nan 225 229 229 232 234 236 238 238 239 242 245 248 251 253 257 260 266 273 278 281 283 276 277 279 285 290 290 287 286 284 288 291 291 290 286 287 283 281 285 286 289 285 282 281 279 278
nan nan nan nan nan nan nan nan nan nan nan nan nan nan nan nan nan nan nan nan nan nan nan nan nan nan nan nan nan nan nan nan nan nan nan nan nan nan nan nan nan 226 229 233 236 238 239 240 241 240 241 244 248 253 260 267 274 277 278 283 280 272 272 278 284 292 291 288 289 288 289 287 285 287 286 283 280 282 286 288 290 291 291 285 284 286
nan nan nan nan nan nan nan nan nan nan nan nan nan nan nan nan nan nan nan nan nan nan nan nan nan nan nan nan nan nan nan nan nan nan nan nan nan nan nan nan nan 224 228 231 236 239 242 244 244 245 248 250 252 256 264 273 276 275 277 279 272 266 267 272 281 289 290 291 289 287 287 284 281 283 280 277 279 282 286 291 296 297 295 294 292 291
nan nan nan nan nan nan nan nan nan nan nan nan nan nan nan nan nan nan nan nan nan nan nan nan nan nan nan nan nan nan nan nan nan nan nan nan nan nan nan nan nan 224 225 229 233 238 243 246 248 248 248 250 254 261 269 273 273 271 274 273 265 261 265 272 281 283 288 286 287 286 285 281 277 277 273 272 275 284 288 290 294 292 287 287 285 288
nan nan nan nan nan nan nan nan nan nan nan nan nan nan nan nan nan nan nan nan nan nan nan nan nan nan nan nan nan nan nan nan nan nan nan nan nan nan nan nan nan 224 226 228 232 236 241 245 248 248 249 252 256 265 267 269 266 271 277 272 265 267 268 270 275 280 283 283 283 284 284 280 276 269 267 267 272 281 287 293 293 286 283 281 279 277
nan nan nan nan nan nan nan nan nan nan nan nan nan nan nan nan nan nan nan nan nan nan nan nan nan nan nan nan nan nan nan nan nan nan nan nan nan nan nan nan nan nan 227 229 231 234 239 241 245 249 254 255 259 262 266 267 272 282 276 265 262 259 259 266 274 276 277 280 284 286 281 276 273 272 272 274 279 283 282 286 285 285 283 279 279 281
nan nan nan nan nan nan nan nan nan nan nan nan nan nan nan nan nan nan nan nan nan nan nan nan nan nan nan nan nan nan nan nan nan nan nan nan nan nan nan nan nan nan 222 229 233 236 241 243 247 249 252 258 262 266 269 272 272 270 263 263 263 259 265 266 268 270 274 280 283 281 281 276 272 268 269 273 280 279 281 280 278 276 280 284 282 284
nan nan nan nan nan nan nan nan nan nan nan nan nan nan nan nan nan nan nan nan nan nan nan nan nan nan nan nan nan nan nan nan nan nan nan nan nan nan nan nan nan nan 222 225 230 235 238 241 246 250 253 255 258 262 265 266 262 252 246 248 253 261 265 266 262 264 265 272 270 272 275 271 265 264 268 270 275 278 283 285 282 284 282 277 279 282
nan nan nan nan nan nan nan nan nan nan nan nan nan nan 221 nan nan nan nan 222 215 nan nan nan nan 213 nan nan nan nan nan 198 198 199 201 199 201 nan nan nan nan nan 224 224 227 232 237 241 247 252 254 256 259 259 255 251 243 239 239 244 243 242 244 250 256 260 266 269 268 268 265 264 264 265 269 273 277 279 283 283 281 279 280 285 281 282
nan nan nan nan nan nan nan nan nan nan nan nan nan nan 223 nan nan nan nan nan nan nan nan nan 208 nan nan nan nan 207 202 nan 199 199 199 196 197 nan nan nan nan nan 224 225 227 230 235 239 243 247 251 255 256 255 253 251 246 237 235 240 245 253 255 258 261 263 264 266 269 271 270 266 264 266 267 273 278 280 280 278 278 279 279 275 279 281
nan nan nan nan nan nan nan nan nan nan nan nan nan nan nan nan nan nan nan nan nan nan nan nan nan nan nan nan 213 205 nan nan nan 199 196 194 197 nan nan nan nan nan 225 227 227 229 234 239 244 248 249 246 246 245 245 240 231 229 234 240 245 248 251 258 258 260 262 264 267 274 268 266 262 266 268 275 278 279 279 277 277 276 274 279 277 282
nan nan nan nan nan nan nan nan nan nan nan nan nan nan nan nan nan nan nan nan nan nan nan nan nan nan nan nan nan nan nan nan nan nan nan nan 200 nan nan nan nan nan 224 228 231 232 233 236 238 242 245 246 247 247 245 236 228 228 234 240 244 250 255 258 258 256 256 260 266 269 264 264 264 266 271 277 276 278 278 276 275 275 279 276 277 277
nan nan nan nan nan nan nan nan nan nan nan nan nan nan nan nan nan nan nan nan nan nan nan nan nan nan nan nan nan nan nan nan nan nan nan nan nan nan nan nan nan nan 216 222 227 230 231 229 229 231 237 241 243 242 237 227 223 226 233 241 245 251 254 254 252 252 254 257 263 263 262 265 264 268 272 277 275 279 276 275 275 275 277 276 275 280
nan nan nan nan nan nan nan nan nan nan nan nan nan nan nan nan nan nan nan nan nan nan nan nan nan nan nan nan nan nan nan nan nan nan nan nan nan nan nan nan nan nan 212 214 217 222 226 226 229 232 237 240 241 236 229 223 223 228 235 241 244 245 248 250 249 251 252 258 264 262 262 265 265 269 274 276 273 277 275 276 276 276 277 275 275 nan
nan nan nan nan nan nan nan nan nan nan nan nan nan nan nan nan nan nan nan nan nan nan nan nan nan nan nan nan nan nan nan nan nan nan nan nan nan nan nan nan nan nan 209 211 213 220 222 223 228 234 237 238 237 232 227 223 224 229 236 242 243 244 248 251 250 252 252 255 261 261 263 263 262 268 274 275 275 278 276 277 278 278 274 276 277 276
nan nan nan nan nan nan nan nan nan 189 182 nan nan nan nan nan nan nan nan nan nan nan nan nan nan nan nan nan nan nan nan nan nan nan nan nan nan nan nan nan nan 202 207 208 209 214 216 218 227 235 239 237 232 227 224 224 228 231 235 241 242 243 248 252 253 254 253 254 259 257 258 258 260 262 267 271 272 272 275 278 279 279 278 275 276 279
nan nan nan nan nan nan nan nan nan 157 164 165 180 nan nan nan nan nan nan nan nan nan nan nan nan nan nan nan nan nan nan nan nan nan nan nan nan nan nan nan 189 194 199 203 205 203 209 217 222 226 231 230 223 224 224 224 228 233 237 241 242 244 247 247 252 252 252 253 254 254 256 255 254 257 263 266 269 273 276 278 278 279 277 275 277 279
nan nan nan nan nan nan nan nan 81 126 141 149 169 194 nan nan nan nan nan nan nan nan nan nan nan nan nan nan nan nan nan nan nan nan nan nan nan nan 190 189 188 186 187 195 199 196 198 210 217 222 224 222 223 225 225 223 225 226 228 233 238 243 249 250 253 252 250 250 253 251 252 252 251 254 261 266 268 272 276 278 280 278 277 277 277 276
nan nan nan nan nan nan nan nan nan 123 176 176 159 173 nan nan nan nan nan nan nan nan nan nan nan nan nan nan nan nan nan nan nan nan nan nan nan nan 191 189 185 182 182 188 195 194 193 201 217 224 225 222 224 226 227 227 228 230 232 233 236 240 243 246 248 248 246 249 250 248 249 253 253 255 261 265 270 272 275 277 279 279 278 278 279 279
nan nan nan nan nan nan nan nan nan nan nan 172 nan 174 195 nan nan nan nan nan nan nan nan nan nan nan nan nan nan nan nan nan nan nan nan nan nan 196 195 193 186 180 182 187 192 196 197 200 210 221 223 224 226 229 231 232 233 233 233 234 239 243 245 247 246 242 241 245 245 247 250 252 255 259 264 266 267 270 275 278 277 277 277 277 277 280
nan nan nan nan nan nan nan nan nan nan nan nan nan 191 198 nan nan nan nan nan nan nan nan nan nan nan nan nan nan nan nan nan nan nan nan nan 199 200 197 195 190 185 184 189 192 196 197 199 213 222 221 222 225 231 232 233 233 233 233 235 239 241 244 246 244 239 238 241 243 247 252 252 256 260 263 265 268 270 273 276 277 277 276 275 275 275
nan nan nan nan nan nan nan nan nan nan nan nan nan nan nan nan nan nan nan nan nan nan nan nan nan nan nan nan nan nan nan nan nan nan nan 191 195 200 198 194 193 194 192 190 196 194 190 194 209 225 228 224 227 232 236 240 240 238 237 238 239 239 242 244 240 235 236 240 245 248 250 252 256 259 262 265 265 265 270 276 277 276 274 276 274 273
nan nan nan nan nan nan nan nan nan nan nan nan nan nan 216 219 nan nan nan nan nan nan nan nan nan nan nan nan nan nan nan nan nan nan nan 193 189 192 196 196 196 199 201 196 194 187 183 184 193 212 230 233 236 243 242 242 245 243 239 238 236 239 239 240 235 232 234 238 242 246 249 251 255 259 260 261 263 267 273 275 276 275 273 271 270 273
nan nan nan nan nan nan nan nan nan nan nan nan nan nan nan 208 211 196 181 195 nan nan nan nan nan nan nan nan nan nan nan nan nan nan 183 183 191 195 195 196 200 201 202 202 199 192 182 178 183 199 208 211 219 224 225 224 226 228 228 229 233 234 236 234 233 230 233 237 240 244 248 252 255 257 259 261 264 269 275 277 272 273 271 271 275 277
nan nan nan nan nan nan nan nan nan nan nan nan nan nan nan nan 204 197 211 226 224 199 158 161 165 171 nan nan nan nan nan nan nan nan 184 181 189 195 196 197 203 206 202 205 203 195 187 181 183 193 208 220 227 226 227 230 233 234 232 231 232 231 232 233 231 229 231 235 239 245 249 253 254 256 258 262 266 271 274 276 277 276 270 270 271 272
nan nan nan nan nan nan nan nan nan nan nan nan nan nan nan nan nan 215 nan 214 268 256 194 177 178 198 202 206 211 213 nan nan nan nan 182 187 194 197 197 197 205 205 205 199 201 198 192 188 186 195 210 215 222 232 233 231 233 234 232 231 229 228 229 230 229 228 232 235 240 246 250 253 255 257 261 264 270 274 276 275 273 271 270 272 273 274
nan nan nan nan nan nan nan nan nan nan nan nan nan nan nan nan nan nan nan nan 245 223 183 179 190 206 202 201 209 209 208 nan nan 191 185 191 nan nan 195 nan nan 205 206 199 192 198 204 201 199 202 207 212 218 224 229 234 237 237 234 231 229 229 230 232 230 230 233 236 242 246 249 252 255 256 259 264 272 274 273 274 272 273 271 275 275 275
nan nan nan nan nan nan nan nan nan nan nan nan nan nan nan nan nan nan nan nan 227 205 188 184 186 185 189 194 202 210 212 nan nan nan nan nan nan nan nan nan 208 216 212 210 198 200 209 213 214 213 212 213 214 218 225 232 238 238 235 232 231 231 232 232 231 232 236 239 242 245 248 249 252 256 260 265 270 273 275 273 271 270 270 270 270 273
nan nan nan nan nan nan nan nan nan nan nan nan nan nan nan nan nan nan nan nan nan 202 194 187 185 183 nan 166 188 203 210 nan nan nan nan nan nan nan nan nan nan nan nan 215 206 203 212 216 219 212 208 211 217 224 228 232 234 235 234 233 233 232 231 230 230 232 235 237 240 242 244 246 252 256 260 263 263 263 266 265 263 266 272 270 270 270
nan nan nan nan nan nan nan nan nan nan nan nan nan nan nan nan nan nan nan nan nan nan 214 nan 225 227 186 145 150 172 194 208 206 207 205 204 205 nan nan nan nan nan nan nan 209 212 215 216 216 213 211 213 224 228 228 228 230 230 228 230 232 232 230 228 228 231 235 238 240 240 242 242 249 254 256 262 266 265 262 263 269 274 277 277 271 269
nan nan nan nan nan nan nan nan nan nan nan nan nan nan nan nan nan nan nan nan nan nan nan nan 211 222 242 152 74 94 145 173 185 202 207 209 213 214 215 219 223 219 nan 210 211 211 207 209 213 213 212 216 224 229 231 233 234 231 229 228 229 229 228 228 230 232 235 239 240 237 236 240 243 251 256 256 254 254 257 258 264 274 281 275 276 277
nan nan nan nan nan nan nan nan nan nan nan nan nan nan nan nan nan nan nan nan nan nan 206 208 225 209 205 171 149 112 137 163 178 192 205 208 213 213 217 219 222 223 220 nan 211 212 210 202 205 208 211 217 224 227 229 233 232 231 232 231 229 227 228 229 230 233 236 237 238 234 234 237 245 245 244 252 261 263 259 257 263 268 272 278 279 278
nan nan nan nan nan nan nan nan nan nan nan nan nan nan nan nan nan nan nan nan nan nan 219 216 208 216 217 189 156 139 137 157 170 187 200 206 208 208 205 205 210 214 221 nan 216 214 215 208 202 201 206 214 221 225 228 233 233 231 233 233 230 228 228 229 230 232 233 233 233 232 232 236 239 245 252 258 257 256 255 259 267 271 274 277 274 272
nan nan nan nan nan nan nan nan nan nan nan nan nan nan nan nan nan nan nan nan nan nan 229 231 210 202 214 183 164 148 129 142 159 177 188 190 196 198 194 190 193 202 208 211 207 206 208 208 210 208 208 210 218 223 228 232 239 239 239 235 233 231 230 229 230 231 231 230 229 230 232 235 242 248 248 251 253 253 252 258 267 268 266 267 262 266
nan nan nan nan nan nan nan nan nan nan nan nan nan nan nan nan nan nan nan nan nan nan nan 226 nan 215 199 204 183 188 191 171 168 170 170 162 161 169 175 177 183 194 206 210 205 200 203 207 211 217 221 220 222 227 229 231 236 241 238 235 232 229 228 228 228 228 229 230 230 231 235 240 243 251 258 254 249 254 264 273 276 280 287 288 281 278
nan nan nan nan nan nan nan nan nan nan nan nan nan nan nan nan nan nan nan nan nan nan nan nan nan nan nan 213 202 197 196 209 206 197 170 153 146 151 165 183 193 200 212 216 213 212 210 211 214 218 225 230 227 223 220 223 223 225 225 228 228 228 227 226 225 224 223 227 231 234 240 248 247 250 255 251 244 248 260 270 277 282 284 285 282 280
nan nan nan nan nan nan nan nan nan nan nan nan nan nan nan nan nan nan nan nan nan nan nan nan nan nan nan nan 232 218 214 220 218 211 197 179 169 167 173 190 202 212 216 222 226 227 223 221 219 220 226 230 233 230 227 229 231 234 234 233 230 223 218 218 218 218 222 228 231 233 238 242 248 255 254 251 251 258 266 275 283 286 287 287 287 286
nan nan nan nan nan nan nan nan nan nan nan nan nan nan nan nan nan nan nan nan nan nan nan nan nan nan 236 nan nan 256 235 230 228 220 211 205 199 193 187 190 202 214 223 230 231 234 235 234 232 232 234 238 244 248 245 241 241 246 248 241 237 241 239 224 212 215 222 228 230 232 234 239 246 251 255 254 257 264 273 285 290 289 286 286 289 293
nan nan nan nan nan nan nan nan nan nan nan nan nan nan nan nan nan nan nan nan nan nan nan nan nan nan nan nan nan 272 258 245 235 226 214 212 214 209 203 205 212 220 228 231 236 241 245 243 241 241 247 247 247 249 247 239 233 233 238 241 236 236 238 232 219 217 224 229 233 238 242 241 245 251 258 263 268 269 260 243 254 267 280 282 281 283
nan nan nan nan nan nan nan nan nan nan nan nan nan nan nan nan nan nan nan nan nan nan nan nan nan nan nan nan nan nan 259 258 243 233 222 219 219 220 221 220 224 229 231 236 241 241 247 247 248 255 263 266 263 258 252 245 240 237 233 234 235 236 235 229 221 219 222 228 234 244 246 250 253 258 261 266 268 268 267 264 250 247 263 272 278 282